Jonestown, PA

10:16 PM EST on December 03, 2016 (GMT -0500)
Muir Army Air Field

Weather History for KMUI - October, 2012

Change the Weather History Date:

Monday, October 8, 2012

  Actual Average Record
Temperature  
Mean Temperature 44 °F -  
Max Temperature 51 °F 65 °F 89 °F (2007)
Min Temperature 37 °F 46 °F 35 °F (2008)
Degree Days  
Heating Degree Days 22    
Moisture  
Dew Point 39 °F    
Average Humidity 78    
Maximum Humidity 94    
Minimum Humidity 63    
Precipitation  
Precipitation 0.00 in - - ()
Sea Level Pressure  
Sea Level Pressure 30.25 in    
Wind  
Wind Speed 3 mph (WSW)    
Max Wind Speed 10 mph    
Max Gust Speed -    
Visibility 10 miles    
Events      
Averages and records for this station are not official NWS values.
T = Trace of Precipitation, MM = Missing Value Source: NWS Daily Summary

Daily Weather History Graph

Daily Weather History Graph

Search for Another Location

Airport or City:

Trip Planner

Search our weather history database for the weather conditions in past years. The results will help you decide how hot, cold, wet, or windy it might be!

Date:

Astronomy

Oct. 08, 2012 Rise Set
Actual Time 7:10 AM EDT 6:36 PM EDT
Civil Twilight 6:43 AM EDT 7:03 PM EDT
Nautical Twilight 6:11 AM EDT 7:35 PM EDT
Astronomical Twilight 5:39 AM EDT 8:06 PM EDT
Moon No Moon Rise 2:25 PM EDT (10/8)
Length of Visible Light 12h 20m
Length of Day
11h 26m
Waning Gibbous, 46% of the Moon is Illuminated
Oct 8
Waning Gibbous
Oct 15
New
Oct 21
First Quarter
Oct 29
Full
Nov 6
Last Quarter

Hourly Weather History & Observations

Time (EDT) Temp. Windchill Dew Point Humidity Pressure Visibility Wind Dir Wind Speed Gust Speed Precip Events Conditions
12:20 AM 46.4 °F 42.4 °F 37.4 °F 71% 30.16 in 10.0 mi WNW 8.1 mph - N/A   Mostly Cloudy
12:27 AM 46.4 °F 43.5 °F 37.4 °F 71% 30.16 in 10.0 mi WNW 5.8 mph - N/A   Mostly Cloudy
12:55 AM 45.3 °F 43.0 °F 37.6 °F 74% 30.18 in 10.0 mi West 4.6 mph - N/A   Partly Cloudy
1:55 AM 45.7 °F 43.4 °F 37.4 °F 73% 30.20 in 10.0 mi West 4.6 mph - N/A   Overcast
2:01 AM 44.6 °F - 37.4 °F 76% 30.20 in 10.0 mi Calm Calm - N/A   Overcast
2:19 AM 44.6 °F - 39.2 °F 81% 30.20 in 10.0 mi Calm Calm - N/A   Scattered Clouds
2:55 AM 42.1 °F - 37.6 °F 84% 30.19 in 10.0 mi Calm Calm - N/A   Clear
3:55 AM 42.1 °F 40.2 °F 36.9 °F 82% 30.19 in 5.0 mi Variable 3.5 mph - N/A   Haze
4:55 AM 40.6 °F - 36.5 °F 85% 30.20 in 10.0 mi Calm Calm - N/A   Clear
5:55 AM 39.7 °F - 35.6 °F 85% 30.24 in 10.0 mi Calm Calm - N/A   Clear
6:55 AM 37.4 °F - 35.8 °F 94% 30.26 in 10.0 mi Calm Calm - N/A   Clear
7:55 AM 40.1 °F - 37.8 °F 91% 30.27 in 10.0 mi Calm Calm - N/A   Clear
8:55 AM 43.7 °F - 36.0 °F 74% 30.29 in 10.0 mi Calm Calm - N/A   Mostly Cloudy
9:55 AM 46.2 °F - 37.4 °F 71% 30.29 in 10.0 mi Calm Calm - N/A   Scattered Clouds
10:55 AM 48.6 °F - 38.7 °F 69% 30.27 in 10.0 mi Calm Calm - N/A   Mostly Cloudy
11:55 AM 49.3 °F - 39.0 °F 68% 30.28 in 10.0 mi East 3.5 mph - N/A   Scattered Clouds
12:55 PM 50.7 °F - 38.5 °F 63% 30.30 in 10.0 mi SSE 3.5 mph - N/A   Partly Cloudy
1:55 PM 49.8 °F - 38.3 °F 65% 30.28 in 10.0 mi Calm Calm - N/A   Partly Cloudy
2:55 PM 50.2 °F - 38.7 °F 65% 30.27 in 10.0 mi Calm Calm - N/A   Clear
3:55 PM 50.2 °F - 39.9 °F 68% 30.29 in 10.0 mi SSW 9.2 mph - N/A   Clear
4:55 PM 48.9 °F - 37.6 °F 65% 30.28 in 10.0 mi South 10.4 mph - N/A   Clear
5:25 PM 48.2 °F - 37.4 °F 66% 30.29 in 10.0 mi SSW 6.9 mph - N/A   Light Drizzle
5:41 PM 48.2 °F - 39.2 °F 71% 30.30 in 10.0 mi SW 8.1 mph - N/A   Scattered Clouds
5:55 PM 47.3 °F - 38.8 °F 72% 30.29 in 10.0 mi SW 5.8 mph - 0.00 in   Mostly Cloudy
6:09 PM 48.2 °F - 39.2 °F 71% 30.29 in 10.0 mi West 5.8 mph - N/A   Light Drizzle
6:55 PM 46.4 °F 45.2 °F 40.6 °F 80% 30.28 in 10.0 mi West 3.5 mph - 0.00 in   Light Drizzle
7:10 PM 46.4 °F - 41.0 °F 81% 30.27 in 10.0 mi Calm Calm - N/A   Mostly Cloudy
7:55 PM 45.7 °F - 43.2 °F 91% 30.27 in 10.0 mi Calm Calm - 0.00 in   Overcast
8:26 PM 46.4 °F - 42.8 °F 87% 30.27 in 10.0 mi Calm Calm - N/A   Light Drizzle
8:40 PM 44.6 °F - 42.8 °F 93% 30.27 in 10.0 mi Calm Calm - N/A   Mostly Cloudy
8:55 PM 45.3 °F - 42.8 °F 91% 30.27 in 10.0 mi Calm Calm - 0.00 in   Overcast
9:47 PM 46.4 °F - 42.8 °F 87% 30.27 in 10.0 mi Calm Calm - N/A   Light Drizzle
9:55 PM 45.5 °F - 43.0 °F 91% 30.27 in 10.0 mi Calm Calm - 0.00 in   Light Drizzle
10:02 PM 44.6 °F - 42.8 °F 93% 30.26 in 10.0 mi Calm Calm - N/A   Overcast
10:55 PM 45.9 °F - 39.2 °F 78% 30.26 in 10.0 mi Calm Calm - 0.00 in   Mostly Cloudy
11:55 PM 46.2 °F - 38.5 °F 74% 30.25 in 10.0 mi Calm Calm - N/A   Mostly Cloudy